This is the latest recevied weather packets stored in our database for station/object W7TTE. If no packets are shown the sender has not sent any weather packets the latest 10 day(s).
| Time | Temp. | Humidity | Pressure | Rain* | Wind** | Luminosity | Snow |
|---|---|---|---|---|---|---|---|
| 1777811811 | 21.67° C | 32% | 1012 hPa | 0 mm | - | 1 W/m² | - |
| 1777811509 | 21.67° C | 32% | 1011.9 hPa | 0 mm | - | 0 W/m² | - |
| 1777811204 | 21.67° C | 30% | 1012 hPa | 0 mm | - | 0 W/m² | - |
| 1777810902 | 21.67° C | 30% | 1011.9 hPa | 0 mm | - | 0 W/m² | - |
| 1777810598 | 21.67° C | 30% | 1011.9 hPa | 0 mm | - | 0 W/m² | - |
| 1777810296 | 21.67° C | 32% | 1011.9 hPa | 0 mm | - | 0 W/m² | - |
| 1777809991 | 21.11° C | 32% | 1011.8 hPa | 0 mm | - | 0 W/m² | - |
| 1777809689 | 21.67° C | 32% | 1011.9 hPa | 0 mm | - | 0 W/m² | - |
| 1777809386 | 21.67° C | 32% | 1011.7 hPa | 0 mm | - | 0 W/m² | - |
| 1777809084 | 21.67° C | 33% | 1011.8 hPa | 0 mm | - | 0 W/m² | - |
| 1777808782 | 21.67° C | 36% | 1011.7 hPa | 0 mm | - | 0 W/m² | - |
| 1777808478 | 21.67° C | 30% | 1011.8 hPa | 0 mm | - | 0 W/m² | - |
| 1777808176 | 21.67° C | 30% | 1011.8 hPa | 0 mm | - | 0 W/m² | - |
| 1777807874 | 22.22° C | 29% | 1012 hPa | 0 mm | - | 0 W/m² | - |
| 1777807572 | 22.22° C | 28% | 1012.1 hPa | 0 mm | - | 0 W/m² | - |
| 1777807268 | 21.67° C | 27% | 1011.7 hPa | 0 mm | - | 0 W/m² | - |
| 1777806965 | 21.67° C | 28% | 1011.8 hPa | 0 mm | - | 0 W/m² | - |
| 1777806661 | 21.67° C | 28% | 1011.7 hPa | 0 mm | - | 0 W/m² | - |
| 1777806357 | 21.67° C | 29% | 1011.9 hPa | 0 mm | - | 0 W/m² | - |
| 1777806054 | 21.67° C | 30% | 1011.8 hPa | 0 mm | - | 0 W/m² | - |
| 1777805750 | 21.67° C | 29% | 1012 hPa | 0 mm | - | 0 W/m² | - |
| 1777805448 | 21.67° C | 29% | 1012 hPa | 0 mm | - | 0 W/m² | - |
| 1777805146 | 21.67° C | 28% | 1012 hPa | 0 mm | - | 0 W/m² | - |
| 1777804843 | 21.67° C | 28% | 1012.2 hPa | 0 mm | - | 0 W/m² | - |
| 1777804541 | 21.67° C | 28% | 1012 hPa | 0 mm | - | 0 W/m² | - |
* Rain latest hour (hover to see other rain measurements)
** Current wind speed in m/s (hover to see current wind gust speed)